TimeCDT,TemperatureF,Dew PointF,Humidity,Sea Level PressureIn,VisibilityMPH,Wind Direction,Wind SpeedMPH,Gust SpeedMPH,PrecipitationIn,Events,Conditions,WindDirDegrees,DateUTC
12:15 AM,61.9,56.1,81,30.19,10.0,South,9.2,-,N/A,,Clear,190,2013-05-24 05:15:00
12:35 AM,61.5,55.9,82,30.18,10.0,SW,6.9,-,N/A,,Clear,230,2013-05-24 05:35:00
12:55 AM,62.8,54.7,75,30.16,10.0,South,9.2,-,N/A,,Clear,190,2013-05-24 05:55:00
1:15 AM,62.6,54.9,76,30.15,10.0,SW,9.2,-,N/A,,Clear,230,2013-05-24 06:15:00
1:35 AM,63.7,54.0,71,30.15,10.0,SSW,9.2,-,N/A,,Clear,210,2013-05-24 06:35:00
1:55 AM,67.5,50.7,55,30.16,10.0,South,6.9,-,N/A,,Clear,190,2013-05-24 06:55:00
2:15 AM,67.8,50.2,53,30.16,10.0,SW,11.5,-,N/A,,Clear,220,2013-05-24 07:15:00
2:35 AM,66.4,51.1,58,30.14,10.0,WSW,8.1,-,N/A,,Clear,240,2013-05-24 07:35:00
2:55 AM,66.7,50.5,56,30.13,10.0,WSW,4.6,-,N/A,,Clear,250,2013-05-24 07:55:00
3:15 AM,68.0,50.2,53,30.15,10.0,SE,5.8,-,N/A,,Clear,140,2013-05-24 08:15:00
3:35 AM,67.8,50.7,54,30.14,10.0,South,9.2,-,N/A,,Clear,170,2013-05-24 08:35:00
3:55 AM,67.3,50.7,55,30.16,10.0,ESE,6.9,-,N/A,,Clear,120,2013-05-24 08:55:00
4:15 AM,64.4,52.7,66,30.15,10.0,Calm,Calm,-,N/A,,Clear,0,2013-05-24 09:15:00
4:35 AM,61.7,53.1,73,30.13,10.0,NNW,4.6,-,N/A,,Clear,330,2013-05-24 09:35:00
4:55 AM,60.8,53.2,76,30.13,10.0,North,4.6,-,N/A,,Clear,360,2013-05-24 09:55:00
5:15 AM,61.7,53.8,75,30.15,10.0,East,5.8,-,N/A,,Clear,80,2013-05-24 10:15:00
5:35 AM,61.9,54.1,76,30.17,10.0,ENE,9.2,-,N/A,,Clear,60,2013-05-24 10:35:00
5:55 AM,60.1,57.9,93,30.18,10.0,ENE,8.1,-,N/A,,Clear,60,2013-05-24 10:55:00
6:15 AM,59.5,58.5,96,30.19,7.0,NNE,4.6,-,N/A,,Scattered Clouds,30,2013-05-24 11:15:00
6:35 AM,59.4,58.6,97,30.19,5.0,North,6.9,-,N/A,,Mostly Cloudy,10,2013-05-24 11:35:00
6:55 AM,59.5,58.6,97,30.19,5.0,North,5.8,-,N/A,,Mostly Cloudy,360,2013-05-24 11:55:00
7:15 AM,60.4,59.0,95,30.20,7.0,NE,3.5,-,N/A,,Overcast,40,2013-05-24 12:15:00
7:35 AM,61.9,59.2,91,30.20,7.0,ESE,9.2,-,N/A,,Overcast,120,2013-05-24 12:35:00
7:55 AM,61.9,58.8,90,30.21,7.0,East,10.4,-,N/A,,Overcast,100,2013-05-24 12:55:00
8:15 AM,61.9,58.3,88,30.21,10.0,East,6.9,-,N/A,,Mostly Cloudy,100,2013-05-24 13:15:00
8:35 AM,62.2,57.6,85,30.21,10.0,ESE,4.6,-,N/A,,Mostly Cloudy,110,2013-05-24 13:35:00
8:55 AM,62.6,57.4,83,30.21,10.0,Calm,Calm,-,N/A,,Scattered Clouds,0,2013-05-24 13:55:00
9:15 AM,63.7,58.1,82,30.22,10.0,Calm,Calm,-,N/A,,Clear,0,2013-05-24 14:15:00
9:35 AM,64.0,58.1,81,30.21,10.0,Calm,Calm,-,N/A,,Clear,0,2013-05-24 14:35:00
9:55 AM,65.5,57.7,76,30.21,10.0,Calm,Calm,-,N/A,,Clear,0,2013-05-24 14:55:00
10:15 AM,67.5,58.1,72,30.22,10.0,Calm,Calm,-,N/A,,Clear,0,2013-05-24 15:15:00
10:35 AM,68.2,58.8,72,30.21,10.0,NNE,3.5,-,N/A,,Clear,20,2013-05-24 15:35:00
11:15 AM,70.5,59.5,68,30.21,10.0,Calm,Calm,-,N/A,,Clear,0,2013-05-24 16:15:00
11:35 AM,72.5,57.7,60,30.20,10.0,South,10.4,-,N/A,,Clear,170,2013-05-24 16:35:00
12:35 PM,73.8,57.6,57,30.20,10.0,SSE,10.4,16.1,N/A,,Clear,160,2013-05-24 17:35:00
12:55 PM,76.5,57.6,52,30.20,10.0,SSE,10.4,-,N/A,,Clear,150,2013-05-24 17:55:00
1:15 PM,75.9,57.0,52,30.19,10.0,SSE,8.1,-,N/A,,Clear,160,2013-05-24 18:15:00
1:35 PM,79.3,56.8,46,30.17,10.0,SE,10.4,-,N/A,,Clear,140,2013-05-24 18:35:00
2:35 PM,81.1,54.9,40,30.17,10.0,Calm,Calm,-,N/A,,Clear,0,2013-05-24 19:35:00
2:55 PM,82.2,55.2,39,30.17,10.0,SE,5.8,-,N/A,,Clear,130,2013-05-24 19:55:00
3:15 PM,83.3,57.2,41,30.16,10.0,East,9.2,24.2,N/A,,Clear,100,2013-05-24 20:15:00
4:55 PM,84.2,55.2,37,30.11,10.0,ENE,10.4,-,N/A,,Clear,70,2013-05-24 21:55:00
5:15 PM,84.4,55.6,37,30.11,10.0,ENE,9.2,-,N/A,,Scattered Clouds,60,2013-05-24 22:15:00
5:35 PM,83.8,55.2,37,30.10,10.0,ENE,10.4,-,N/A,,Scattered Clouds,70,2013-05-24 22:35:00
5:55 PM,84.6,54.9,36,30.09,10.0,ENE,11.5,-,N/A,,Clear,70,2013-05-24 22:55:00
6:15 PM,84.4,54.9,36,30.09,10.0,ENE,5.8,-,N/A,,Clear,60,2013-05-24 23:15:00
6:35 PM,83.5,54.9,37,30.09,10.0,NE,5.8,-,N/A,,Clear,40,2013-05-24 23:35:00
6:55 PM,83.8,54.3,36,30.08,10.0,ENE,4.6,-,N/A,,Clear,60,2013-05-24 23:55:00
7:15 PM,83.5,54.7,37,30.08,10.0,ESE,9.2,-,N/A,,Clear,110,2013-05-25 00:15:00
7:35 PM,81.7,54.9,40,30.08,10.0,SE,5.8,-,N/A,,Clear,130,2013-05-25 00:35:00
7:55 PM,81.0,54.9,41,30.08,10.0,SE,8.1,-,N/A,,Clear,140,2013-05-25 00:55:00
8:15 PM,79.5,54.7,42,30.09,10.0,SE,8.1,-,N/A,,Clear,140,2013-05-25 01:15:00
8:35 PM,78.1,54.9,45,30.09,10.0,SSE,10.4,-,N/A,,Clear,150,2013-05-25 01:35:00
8:55 PM,75.4,56.3,51,30.10,10.0,SE,16.1,21.9,N/A,,Clear,130,2013-05-25 01:55:00
9:35 PM,72.5,53.8,52,30.12,10.0,SE,18.4,26.5,N/A,,Clear,140,2013-05-25 02:35:00
9:55 PM,71.6,53.6,53,30.13,10.0,SSE,16.1,24.2,N/A,,Scattered Clouds,150,2013-05-25 02:55:00
10:15 PM,70.9,54.5,56,30.15,10.0,SSE,17.3,23.0,N/A,,Mostly Cloudy,160,2013-05-25 03:15:00
10:35 PM,69.8,52.0,53,30.15,10.0,SSE,17.3,24.2,N/A,,Scattered Clouds,150,2013-05-25 03:35:00
10:55 PM,69.1,51.4,53,30.15,10.0,SSE,18.4,24.2,N/A,,Clear,150,2013-05-25 03:55:00
11:15 PM,68.9,51.8,54,30.16,10.0,SSE,16.1,28.8,N/A,,Clear,150,2013-05-25 04:15:00
11:35 PM,68.2,52.7,58,30.16,10.0,SSE,16.1,26.5,N/A,,Clear,150,2013-05-25 04:35:00
11:55 PM,68.0,52.9,58,30.16,10.0,SSE,13.8,24.2,N/A,,Clear,160,2013-05-25 04:55:00